contact:dominique.lefevre@mio.osupytheas.fr, maurice.libes@osupytheas.fr, didier.mallarino@osupytheas.fr
Project:EMSO http://www.emso-fr.org/EMSO-France
Depth: 2436.0 m
Title:EMSO Ligure Ouest : Data MII capteur MICROCAT
DateTime_Computer,Latitude,Longitude,Temperature,Conductivity,Pressure,DateTime_Instrument
DateTime_Computer,Latitude,Longitude,degC,S m-1,dbar,DateTime_Instrument
2020-07-29T00:02:33Z,42.805,6.029,13.2976,4.59976,2470.171,2020-7-29T02:03:21Z
2020-07-29T00:05:37Z,42.805,6.029,13.2975,4.59975,2470.156,2020-7-29T02:06:24Z
2020-07-29T00:08:40Z,42.805,6.029,13.2974,4.59976,2470.156,2020-7-29T02:09:28Z
2020-07-29T00:11:43Z,42.805,6.029,13.2974,4.59976,2470.147,2020-7-29T02:12:31Z
2020-07-29T00:14:46Z,42.805,6.029,13.2976,4.59976,2470.194,2020-7-29T02:15:34Z
2020-07-29T00:17:50Z,42.805,6.029,13.2975,4.59975,2470.18,2020-7-29T02:18:38Z
2020-07-29T00:20:53Z,42.805,6.029,13.2977,4.59975,2470.156,2020-7-29T02:21:41Z
2020-07-29T00:23:56Z,42.805,6.029,13.2978,4.59975,2470.156,2020-7-29T02:24:44Z
2020-07-29T00:27:00Z,42.805,6.029,13.2974,4.59975,2470.171,2020-7-29T02:27:47Z
2020-07-29T00:30:03Z,42.805,6.029,13.2976,4.59979,2470.171,2020-7-29T02:30:51Z
2020-07-29T00:33:06Z,42.805,6.029,13.2976,4.59976,2470.18,2020-7-29T02:33:54Z
2020-07-29T00:36:09Z,42.805,6.029,13.2975,4.59976,2470.171,2020-7-29T02:36:57Z
2020-07-29T00:39:12Z,42.805,6.029,13.2976,4.59975,2470.156,2020-7-29T02:40:00Z
2020-07-29T00:42:16Z,42.805,6.029,13.2973,4.59976,2470.156,2020-7-29T02:43:03Z
2020-07-29T00:45:19Z,42.805,6.029,13.2976,4.59976,2470.133,2020-7-29T02:46:07Z
2020-07-29T00:48:22Z,42.805,6.029,13.2976,4.59976,2470.133,2020-7-29T02:49:10Z
2020-07-29T00:51:25Z,42.805,6.029,13.2975,4.59976,2470.156,2020-7-29T02:52:13Z
2020-07-29T00:54:29Z,42.805,6.029,13.2974,4.59975,2470.18,2020-7-29T02:55:16Z
2020-07-29T00:57:32Z,42.805,6.029,13.2971,4.59976,2470.133,2020-7-29T02:58:20Z
2020-07-29T01:00:35Z,42.805,6.029,13.2971,4.59978,2470.156,2020-7-29T03:01:23Z
2020-07-29T01:03:38Z,42.805,6.029,13.2972,4.59978,2470.171,2020-7-29T03:04:26Z
2020-07-29T01:06:41Z,42.805,6.029,13.2973,4.59976,2470.156,2020-7-29T03:07:29Z
2020-07-29T01:09:45Z,42.805,6.029,13.2974,4.59976,2470.194,2020-7-29T03:10:33Z
2020-07-29T01:12:48Z,42.805,6.029,13.2974,4.59976,2470.156,2020-7-29T03:13:36Z
2020-07-29T01:15:51Z,42.805,6.029,13.2974,4.59976,2470.133,2020-7-29T03:16:39Z
2020-07-29T01:18:54Z,42.805,6.029,13.2979,4.59976,2470.18,2020-7-29T03:19:42Z
2020-07-29T01:21:58Z,42.805,6.029,13.2973,4.59976,2470.156,2020-7-29T03:22:46Z
2020-07-29T01:25:01Z,42.805,6.029,13.2976,4.59976,2470.18,2020-7-29T03:25:49Z
2020-07-29T01:28:04Z,42.805,6.029,13.2978,4.59975,2470.156,2020-7-29T03:28:52Z
2020-07-29T01:31:08Z,42.805,6.029,13.2973,4.59976,2470.156,2020-7-29T03:31:56Z
2020-07-29T01:34:11Z,42.805,6.029,13.2978,4.59979,2470.194,2020-7-29T03:34:59Z
2020-07-29T01:37:14Z,42.805,6.029,13.2976,4.59976,2470.133,2020-7-29T03:38:02Z
2020-07-29T01:40:18Z,42.805,6.029,13.2978,4.59976,2470.156,2020-7-29T03:41:05Z
2020-07-29T01:43:21Z,42.805,6.029,13.2978,4.59976,2470.217,2020-7-29T03:44:09Z
2020-07-29T01:46:24Z,42.805,6.029,13.2975,4.59978,2470.18,2020-7-29T03:47:12Z
2020-07-29T01:49:27Z,42.805,6.029,13.2977,4.59976,2470.156,2020-7-29T03:50:15Z
2020-07-29T01:52:30Z,42.805,6.029,13.2975,4.59976,2470.18,2020-7-29T03:53:18Z
2020-07-29T01:55:34Z,42.805,6.029,13.2974,4.59980,2470.156,2020-7-29T03:56:22Z
2020-07-29T01:58:37Z,42.805,6.029,13.2971,4.59975,2470.203,2020-7-29T03:59:25Z
2020-07-29T02:01:40Z,42.805,6.029,13.2976,4.59976,2470.133,2020-7-29T04:02:28Z
2020-07-29T02:04:43Z,42.805,6.029,13.2974,4.59978,2470.156,2020-7-29T04:05:31Z
2020-07-29T02:07:47Z,42.805,6.029,13.2974,4.59976,2470.194,2020-7-29T04:08:35Z
2020-07-29T02:10:50Z,42.805,6.029,13.2977,4.59976,2470.18,2020-7-29T04:11:38Z
2020-07-29T02:13:53Z,42.805,6.029,13.2974,4.59975,2470.18,2020-7-29T04:14:41Z
2020-07-29T02:16:56Z,42.805,6.029,13.2976,4.59975,2470.194,2020-7-29T04:17:44Z
2020-07-29T02:20:00Z,42.805,6.029,13.2975,4.59976,2470.171,2020-7-29T04:20:48Z
2020-07-29T02:23:03Z,42.805,6.029,13.2974,4.59975,2470.171,2020-7-29T04:23:51Z
2020-07-29T02:26:06Z,42.805,6.029,13.2976,4.59976,2470.156,2020-7-29T04:26:54Z
2020-07-29T02:29:10Z,42.805,6.029,13.2976,4.59976,2470.133,2020-7-29T04:29:57Z
2020-07-29T02:32:13Z,42.805,6.029,13.2973,4.59976,2470.171,2020-7-29T04:33:01Z
2020-07-29T02:35:16Z,42.805,6.029,13.2973,4.59976,2470.194,2020-7-29T04:36:04Z
2020-07-29T02:38:19Z,42.805,6.029,13.2972,4.59974,2470.156,2020-7-29T04:39:07Z
2020-07-29T02:41:23Z,42.805,6.029,13.2975,4.59975,2470.18,2020-7-29T04:42:10Z
2020-07-29T02:44:26Z,42.805,6.029,13.2975,4.59976,2470.194,2020-7-29T04:45:14Z
2020-07-29T02:47:29Z,42.805,6.029,13.2973,4.59976,2470.171,2020-7-29T04:48:17Z
2020-07-29T02:50:33Z,42.805,6.029,13.2972,4.59974,2470.18,2020-7-29T04:51:21Z
2020-07-29T02:53:36Z,42.805,6.029,13.2971,4.59976,2470.156,2020-7-29T04:54:24Z
2020-07-29T02:56:39Z,42.805,6.029,13.2972,4.59976,2470.156,2020-7-29T04:57:27Z
2020-07-29T02:59:42Z,42.805,6.029,13.2974,4.59975,2470.133,2020-7-29T05:00:30Z
2020-07-29T03:02:46Z,42.805,6.029,13.2973,4.59974,2470.133,2020-7-29T05:03:33Z
2020-07-29T03:05:49Z,42.805,6.029,13.2974,4.59974,2470.156,2020-7-29T05:06:37Z
2020-07-29T03:08:52Z,42.805,6.029,13.2971,4.59975,2470.156,2020-7-29T05:09:40Z
2020-07-29T03:11:55Z,42.805,6.029,13.2973,4.59974,2470.171,2020-7-29T05:12:43Z
2020-07-29T03:14:59Z,42.805,6.029,13.2971,4.59975,2470.133,2020-7-29T05:15:46Z
2020-07-29T03:18:02Z,42.805,6.029,13.2971,4.59976,2470.18,2020-7-29T05:18:50Z
2020-07-29T03:21:05Z,42.805,6.029,13.2972,4.59973,2470.156,2020-7-29T05:21:53Z
2020-07-29T03:24:09Z,42.805,6.029,13.2969,4.59973,2470.171,2020-7-29T05:24:56Z
2020-07-29T03:27:12Z,42.805,6.029,13.2974,4.59975,2470.171,2020-7-29T05:28:00Z
2020-07-29T03:30:15Z,42.805,6.029,13.2973,4.59976,2470.171,2020-7-29T05:31:03Z
2020-07-29T03:33:18Z,42.805,6.029,13.2976,4.59974,2470.166,2020-7-29T05:34:06Z
2020-07-29T03:36:22Z,42.805,6.029,13.2974,4.59973,2470.124,2020-7-29T05:37:09Z
2020-07-29T03:39:25Z,42.805,6.029,13.2972,4.59975,2470.156,2020-7-29T05:40:13Z
2020-07-29T03:42:28Z,42.805,6.029,13.2971,4.59973,2470.147,2020-7-29T05:43:16Z
2020-07-29T03:45:31Z,42.805,6.029,13.2976,4.59974,2470.18,2020-7-29T05:46:19Z
2020-07-29T03:48:35Z,42.805,6.029,13.2974,4.59973,2470.156,2020-7-29T05:49:22Z
2020-07-29T03:51:38Z,42.805,6.029,13.2973,4.59973,2470.147,2020-7-29T05:52:26Z
2020-07-29T03:54:41Z,42.805,6.029,13.2972,4.59973,2470.133,2020-7-29T05:55:29Z
2020-07-29T03:57:44Z,42.805,6.029,13.2969,4.59973,2470.133,2020-7-29T05:58:32Z
2020-07-29T04:00:47Z,42.805,6.029,13.2972,4.59973,2470.147,2020-7-29T06:01:35Z
2020-07-29T04:03:51Z,42.805,6.029,13.2969,4.59973,2470.133,2020-7-29T06:04:38Z
2020-07-29T04:06:54Z,42.805,6.029,13.2971,4.59973,2470.11,2020-7-29T06:07:42Z
2020-07-29T04:09:57Z,42.805,6.029,13.2974,4.59972,2470.156,2020-7-29T06:10:45Z
2020-07-29T04:13:00Z,42.805,6.029,13.2974,4.59973,2470.156,2020-7-29T06:13:48Z
2020-07-29T04:16:04Z,42.805,6.029,13.2971,4.59972,2470.147,2020-7-29T06:16:51Z
2020-07-29T04:19:07Z,42.805,6.029,13.2974,4.59973,2470.11,2020-7-29T06:19:55Z
2020-07-29T04:22:10Z,42.805,6.029,13.2971,4.59972,2470.171,2020-7-29T06:22:58Z
2020-07-29T04:25:14Z,42.805,6.029,13.2969,4.59972,2470.147,2020-7-29T06:26:01Z
2020-07-29T04:28:17Z,42.805,6.029,13.2971,4.59973,2470.124,2020-7-29T06:29:05Z
2020-07-29T04:31:20Z,42.805,6.029,13.2972,4.59972,2470.124,2020-7-29T06:32:08Z
2020-07-29T04:34:23Z,42.805,6.029,13.2968,4.59973,2470.124,2020-7-29T06:35:11Z
2020-07-29T04:37:26Z,42.805,6.029,13.2968,4.59973,2470.11,2020-7-29T06:38:14Z
2020-07-29T04:40:30Z,42.805,6.029,13.2971,4.59973,2470.171,2020-7-29T06:41:17Z
2020-07-29T04:43:33Z,42.805,6.029,13.2971,4.59974,2470.156,2020-7-29T06:44:21Z
2020-07-29T04:46:36Z,42.805,6.029,13.2972,4.59972,2470.124,2020-7-29T06:47:24Z
2020-07-29T04:49:39Z,42.805,6.029,13.2969,4.59974,2470.133,2020-7-29T06:50:27Z
2020-07-29T04:52:43Z,42.805,6.029,13.2971,4.59974,2470.11,2020-7-29T06:53:30Z
2020-07-29T04:55:46Z,42.805,6.029,13.2968,4.59973,2470.147,2020-7-29T06:56:34Z
2020-07-29T04:58:49Z,42.805,6.029,13.2968,4.59973,2470.11,2020-7-29T06:59:37Z
2020-07-29T05:01:52Z,42.805,6.029,13.2971,4.59973,2470.133,2020-7-29T07:02:40Z
2020-07-29T05:04:56Z,42.805,6.029,13.2971,4.59972,2470.133,2020-7-29T07:05:43Z
2020-07-29T05:07:59Z,42.805,6.029,13.2971,4.59972,2470.11,2020-7-29T07:08:47Z
2020-07-29T05:11:02Z,42.805,6.029,13.2974,4.59972,2470.133,2020-7-29T07:11:50Z
2020-07-29T05:14:05Z,42.805,6.029,13.2971,4.59972,2470.124,2020-7-29T07:14:53Z
2020-07-29T05:17:08Z,42.805,6.029,13.2976,4.59974,2470.147,2020-7-29T07:17:56Z
2020-07-29T05:20:12Z,42.805,6.029,13.2971,4.59971,2470.11,2020-7-29T07:21:00Z
2020-07-29T05:23:15Z,42.805,6.029,13.2976,4.59973,2470.133,2020-7-29T07:24:03Z
2020-07-29T05:26:18Z,42.805,6.029,13.2970,4.59972,2470.147,2020-7-29T07:27:06Z
2020-07-29T05:29:21Z,42.805,6.029,13.2968,4.59971,2470.147,2020-7-29T07:30:09Z
2020-07-29T05:32:24Z,42.805,6.029,13.2969,4.59971,2470.11,2020-7-29T07:33:12Z
2020-07-29T05:35:28Z,42.805,6.029,13.2968,4.59973,2470.147,2020-7-29T07:36:16Z
2020-07-29T05:38:31Z,42.805,6.029,13.2971,4.59971,2470.1,2020-7-29T07:39:19Z
2020-07-29T05:41:35Z,42.805,6.029,13.2969,4.59972,2470.147,2020-7-29T07:42:22Z
2020-07-29T05:44:38Z,42.805,6.029,13.2971,4.59975,2470.11,2020-7-29T07:45:26Z
2020-07-29T05:47:41Z,42.805,6.029,13.2969,4.59971,2470.087,2020-7-29T07:48:29Z
2020-07-29T05:50:44Z,42.805,6.029,13.2970,4.59975,2470.124,2020-7-29T07:51:32Z
2020-07-29T05:53:47Z,42.805,6.029,13.2971,4.59971,2470.11,2020-7-29T07:54:35Z
2020-07-29T05:56:51Z,42.805,6.029,13.2971,4.59972,2470.11,2020-7-29T07:57:39Z
2020-07-29T05:59:54Z,42.805,6.029,13.2974,4.59971,2470.11,2020-7-29T08:00:42Z
2020-07-29T06:02:57Z,42.805,6.029,13.2970,4.59973,2470.063,2020-7-29T08:03:45Z
2020-07-29T06:06:00Z,42.805,6.029,13.2968,4.59971,2470.11,2020-7-29T08:06:48Z
2020-07-29T06:09:04Z,42.805,6.029,13.2968,4.59971,2470.124,2020-7-29T08:09:51Z
2020-07-29T06:12:07Z,42.805,6.029,13.2973,4.59972,2470.124,2020-7-29T08:12:55Z
2020-07-29T06:15:10Z,42.805,6.029,13.2974,4.59972,2470.124,2020-7-29T08:15:58Z
2020-07-29T06:18:13Z,42.805,6.029,13.2971,4.59971,2470.1,2020-7-29T08:19:01Z
2020-07-29T06:21:17Z,42.805,6.029,13.2972,4.59976,2470.087,2020-7-29T08:22:04Z
2020-07-29T06:24:20Z,42.805,6.029,13.2971,4.59971,2470.11,2020-7-29T08:25:08Z
2020-07-29T06:27:23Z,42.805,6.029,13.2968,4.59972,2470.087,2020-7-29T08:28:11Z
2020-07-29T06:30:26Z,42.805,6.029,13.2972,4.59971,2470.124,2020-7-29T08:31:14Z
2020-07-29T06:33:30Z,42.805,6.029,13.2967,4.59971,2470.11,2020-7-29T08:34:17Z
2020-07-29T06:36:33Z,42.805,6.029,13.2970,4.59972,2470.11,2020-7-29T08:37:21Z
2020-07-29T06:39:36Z,42.805,6.029,13.2972,4.59971,2470.11,2020-7-29T08:40:24Z
2020-07-29T06:42:39Z,42.805,6.029,13.2975,4.59972,2470.073,2020-7-29T08:43:27Z
2020-07-29T06:45:42Z,42.805,6.029,13.2972,4.59971,2470.063,2020-7-29T08:46:30Z
2020-07-29T06:48:46Z,42.805,6.029,13.2969,4.59973,2470.087,2020-7-29T08:49:34Z
2020-07-29T06:51:49Z,42.805,6.029,13.2971,4.59973,2470.087,2020-7-29T08:52:37Z
2020-07-29T06:54:52Z,42.805,6.029,13.2968,4.59971,2470.063,2020-7-29T08:55:40Z
2020-07-29T06:57:55Z,42.805,6.029,13.2973,4.59972,2470.053,2020-7-29T08:58:43Z
2020-07-29T07:00:59Z,42.805,6.029,13.2972,4.59971,2470.087,2020-7-29T09:01:47Z
2020-07-29T07:04:02Z,42.805,6.029,13.2974,4.59973,2470.1,2020-7-29T09:04:50Z
2020-07-29T07:07:05Z,42.805,6.029,13.2974,4.59972,2470.063,2020-7-29T09:07:53Z
2020-07-29T07:10:09Z,42.805,6.029,13.2972,4.59974,2470.1,2020-7-29T09:10:56Z
2020-07-29T07:13:12Z,42.805,6.029,13.2970,4.59972,2470.063,2020-7-29T09:14:00Z
2020-07-29T07:16:15Z,42.805,6.029,13.2970,4.59972,2470.063,2020-7-29T09:17:03Z
2020-07-29T07:19:18Z,42.805,6.029,13.2970,4.59975,2470.063,2020-7-29T09:20:06Z
2020-07-29T07:22:22Z,42.805,6.029,13.2972,4.59972,2470.063,2020-7-29T09:23:09Z
2020-07-29T07:25:25Z,42.805,6.029,13.2971,4.59972,2470.077,2020-7-29T09:26:13Z
2020-07-29T07:28:28Z,42.805,6.029,13.2968,4.59972,2470.063,2020-7-29T09:29:16Z
2020-07-29T07:31:31Z,42.805,6.029,13.2971,4.59971,2470.063,2020-7-29T09:32:19Z
2020-07-29T07:34:34Z,42.805,6.029,13.2970,4.59971,2470.063,2020-7-29T09:35:22Z
2020-07-29T07:37:38Z,42.805,6.029,13.2972,4.59971,2470.04,2020-7-29T09:38:26Z
2020-07-29T07:40:41Z,42.805,6.029,13.2970,4.59971,2470.053,2020-7-29T09:41:29Z
2020-07-29T07:43:44Z,42.805,6.029,13.2971,4.59971,2470.04,2020-7-29T09:44:32Z
2020-07-29T07:46:48Z,42.805,6.029,13.2970,4.59971,2470.04,2020-7-29T09:47:35Z
2020-07-29T07:49:51Z,42.805,6.029,13.2974,4.59971,2470.053,2020-7-29T09:50:39Z
2020-07-29T07:52:55Z,42.805,6.029,13.2971,4.59971,2470.04,2020-7-29T09:53:42Z
2020-07-29T07:55:58Z,42.805,6.029,13.2973,4.59973,2470.03,2020-7-29T09:56:46Z
2020-07-29T07:59:01Z,42.805,6.029,13.2974,4.59971,2470.017,2020-7-29T09:59:49Z
2020-07-29T08:02:04Z,42.805,6.029,13.2974,4.59973,2470.077,2020-7-29T10:02:52Z
2020-07-29T08:05:08Z,42.805,6.029,13.2973,4.59972,2470.03,2020-7-29T10:05:55Z
2020-07-29T08:08:11Z,42.805,6.029,13.2970,4.59971,2470.063,2020-7-29T10:08:59Z
2020-07-29T08:11:14Z,42.805,6.029,13.2971,4.59972,2470.017,2020-7-29T10:12:02Z
2020-07-29T08:14:17Z,42.805,6.029,13.2970,4.59971,2470.063,2020-7-29T10:15:05Z
2020-07-29T08:17:20Z,42.805,6.029,13.2974,4.59971,2470.053,2020-7-29T10:18:08Z
2020-07-29T08:20:24Z,42.805,6.029,13.2971,4.59974,2470.077,2020-7-29T10:21:12Z
2020-07-29T08:23:27Z,42.805,6.029,13.2972,4.59973,2470.053,2020-7-29T10:24:15Z
2020-07-29T08:26:30Z,42.805,6.029,13.2971,4.59972,2470.017,2020-7-29T10:27:18Z
2020-07-29T08:29:33Z,42.805,6.029,13.2973,4.59971,2470.063,2020-7-29T10:30:21Z
2020-07-29T08:32:37Z,42.805,6.029,13.2969,4.59971,2470.077,2020-7-29T10:33:25Z
2020-07-29T08:35:40Z,42.805,6.029,13.2967,4.59971,2470.03,2020-7-29T10:36:28Z
2020-07-29T08:38:43Z,42.805,6.029,13.2968,4.59972,2470.03,2020-7-29T10:39:31Z
2020-07-29T08:41:47Z,42.805,6.029,13.2971,4.59971,2470.04,2020-7-29T10:42:35Z
2020-07-29T08:44:50Z,42.805,6.029,13.2970,4.59971,2470.017,2020-7-29T10:45:38Z
2020-07-29T08:47:53Z,42.805,6.029,13.2969,4.59971,2470.04,2020-7-29T10:48:41Z
2020-07-29T08:50:56Z,42.805,6.029,13.2971,4.59971,2470.04,2020-7-29T10:51:44Z
2020-07-29T08:54:00Z,42.805,6.029,13.2967,4.59970,2470.053,2020-7-29T10:54:48Z
2020-07-29T08:57:03Z,42.805,6.029,13.2967,4.59971,2470.04,2020-7-29T10:57:51Z
2020-07-29T09:00:06Z,42.805,6.029,13.2974,4.59974,2470.04,2020-7-29T11:00:54Z
2020-07-29T09:03:09Z,42.805,6.029,13.2972,4.59971,2470.017,2020-7-29T11:03:57Z
2020-07-29T09:06:13Z,42.805,6.029,13.2972,4.59972,2470.03,2020-7-29T11:07:00Z
2020-07-29T09:09:16Z,42.805,6.029,13.2970,4.59973,2470.04,2020-7-29T11:10:04Z
2020-07-29T09:12:19Z,42.805,6.029,13.2970,4.59971,2470.03,2020-7-29T11:13:07Z
2020-07-29T09:15:23Z,42.805,6.029,13.2968,4.59973,2470.04,2020-7-29T11:16:10Z
2020-07-29T09:18:26Z,42.805,6.029,13.2971,4.59971,2470.017,2020-7-29T11:19:14Z
2020-07-29T09:21:29Z,42.805,6.029,13.2971,4.59973,2470.017,2020-7-29T11:22:17Z
2020-07-29T09:24:32Z,42.805,6.029,13.2971,4.59973,2470.03,2020-7-29T11:25:20Z
2020-07-29T09:27:35Z,42.805,6.029,13.2969,4.59972,2470.017,2020-7-29T11:28:23Z
2020-07-29T09:30:39Z,42.805,6.029,13.2968,4.59971,2470.053,2020-7-29T11:31:27Z
2020-07-29T09:33:42Z,42.805,6.029,13.2971,4.59970,2470.04,2020-7-29T11:34:30Z
2020-07-29T09:36:45Z,42.805,6.029,13.2974,4.59971,2470.04,2020-7-29T11:37:33Z
2020-07-29T09:39:48Z,42.805,6.029,13.2971,4.59971,2470.04,2020-7-29T11:40:36Z
2020-07-29T09:42:52Z,42.805,6.029,13.2971,4.59971,2470.04,2020-7-29T11:43:39Z
2020-07-29T09:45:55Z,42.805,6.029,13.2971,4.59970,2470.04,2020-7-29T11:46:43Z
2020-07-29T09:48:58Z,42.805,6.029,13.2972,4.59970,2470.04,2020-7-29T11:49:46Z
2020-07-29T09:52:01Z,42.805,6.029,13.2969,4.59971,2470.04,2020-7-29T11:52:49Z
2020-07-29T09:55:05Z,42.805,6.029,13.2971,4.59974,2470.077,2020-7-29T11:55:53Z
2020-07-29T09:58:08Z,42.805,6.029,13.2967,4.59971,2470.03,2020-7-29T11:58:56Z
2020-07-29T10:01:11Z,42.805,6.029,13.2969,4.59972,2470.03,2020-7-29T12:01:59Z
2020-07-29T10:04:14Z,42.805,6.029,13.2969,4.59973,2470.017,2020-7-29T12:05:02Z
2020-07-29T10:07:18Z,42.805,6.029,13.2972,4.59972,2470.017,2020-7-29T12:08:06Z
2020-07-29T10:10:21Z,42.805,6.029,13.2970,4.59971,2470.04,2020-7-29T12:11:09Z
2020-07-29T10:13:24Z,42.805,6.029,13.2967,4.59972,2470.063,2020-7-29T12:14:12Z
2020-07-29T10:16:27Z,42.805,6.029,13.2968,4.59971,2470.04,2020-7-29T12:17:15Z
2020-07-29T10:19:31Z,42.805,6.029,13.2971,4.59971,2470.04,2020-7-29T12:20:19Z
2020-07-29T10:22:34Z,42.805,6.029,13.2971,4.59971,2470.063,2020-7-29T12:23:22Z
2020-07-29T10:25:37Z,42.805,6.029,13.2974,4.59971,2470.04,2020-7-29T12:26:25Z
2020-07-29T10:28:40Z,42.805,6.029,13.2971,4.59971,2470.053,2020-7-29T12:29:28Z
2020-07-29T10:31:44Z,42.805,6.029,13.2973,4.59971,2470.077,2020-7-29T12:32:31Z
2020-07-29T10:34:47Z,42.805,6.029,13.2974,4.59972,2470.063,2020-7-29T12:35:35Z
2020-07-29T10:37:50Z,42.805,6.029,13.2973,4.59971,2470.04,2020-7-29T12:38:38Z
2020-07-29T10:40:53Z,42.805,6.029,13.2972,4.59972,2470.063,2020-7-29T12:41:41Z
2020-07-29T10:43:57Z,42.805,6.029,13.2976,4.59974,2470.053,2020-7-29T12:44:45Z
2020-07-29T10:47:00Z,42.805,6.029,13.2971,4.59973,2470.077,2020-7-29T12:47:48Z
2020-07-29T10:50:03Z,42.805,6.029,13.2968,4.59971,2470.063,2020-7-29T12:50:51Z
2020-07-29T10:53:07Z,42.805,6.029,13.2974,4.59972,2470.063,2020-7-29T12:53:54Z
2020-07-29T10:56:10Z,42.805,6.029,13.2971,4.59973,2470.063,2020-7-29T12:56:58Z
2020-07-29T10:59:13Z,42.805,6.029,13.2974,4.59972,2470.1,2020-7-29T13:00:01Z
2020-07-29T11:02:16Z,42.805,6.029,13.2972,4.59974,2470.077,2020-7-29T13:03:04Z
2020-07-29T11:05:19Z,42.805,6.029,13.2974,4.59973,2470.087,2020-7-29T13:06:07Z
2020-07-29T11:08:23Z,42.805,6.029,13.2970,4.59974,2470.063,2020-7-29T13:09:11Z
2020-07-29T11:11:26Z,42.805,6.029,13.2970,4.59973,2470.087,2020-7-29T13:12:14Z
2020-07-29T11:14:29Z,42.805,6.029,13.2972,4.59974,2470.063,2020-7-29T13:15:17Z
2020-07-29T11:17:32Z,42.805,6.029,13.2972,4.59974,2470.087,2020-7-29T13:18:20Z
2020-07-29T11:20:36Z,42.805,6.029,13.2971,4.59972,2470.11,2020-7-29T13:21:23Z
2020-07-29T11:23:39Z,42.805,6.029,13.2971,4.59973,2470.063,2020-7-29T13:24:27Z
2020-07-29T11:26:42Z,42.805,6.029,13.2971,4.59973,2470.087,2020-7-29T13:27:30Z
2020-07-29T11:29:45Z,42.805,6.029,13.2969,4.59972,2470.063,2020-7-29T13:30:33Z
2020-07-29T11:32:49Z,42.805,6.029,13.2971,4.59972,2470.1,2020-7-29T13:33:36Z
2020-07-29T11:35:52Z,42.805,6.029,13.2971,4.59973,2470.087,2020-7-29T13:36:40Z
2020-07-29T11:38:55Z,42.805,6.029,13.2971,4.59972,2470.11,2020-7-29T13:39:43Z
2020-07-29T11:41:58Z,42.805,6.029,13.2970,4.59975,2470.087,2020-7-29T13:42:46Z
2020-07-29T11:45:01Z,42.805,6.029,13.2975,4.59972,2470.087,2020-7-29T13:45:49Z
2020-07-29T11:48:05Z,42.805,6.029,13.2971,4.59973,2470.1,2020-7-29T13:48:53Z
2020-07-29T11:51:08Z,42.805,6.029,13.2971,4.59973,2470.077,2020-7-29T13:51:56Z
2020-07-29T11:54:11Z,42.805,6.029,13.2968,4.59973,2470.1,2020-7-29T13:54:59Z
2020-07-29T11:57:15Z,42.805,6.029,13.2969,4.59973,2470.087,2020-7-29T13:58:02Z
2020-07-29T12:00:18Z,42.805,6.029,13.2976,4.59973,2470.11,2020-7-29T14:01:06Z
2020-07-29T12:03:21Z,42.805,6.029,13.2974,4.59973,2470.077,2020-7-29T14:04:09Z
2020-07-29T12:06:24Z,42.805,6.029,13.2974,4.59973,2470.11,2020-7-29T14:07:12Z
2020-07-29T12:09:27Z,42.805,6.029,13.2972,4.59972,2470.11,2020-7-29T14:10:15Z
2020-07-29T12:12:31Z,42.805,6.029,13.2973,4.59972,2470.063,2020-7-29T14:13:19Z
2020-07-29T12:15:34Z,42.805,6.029,13.2972,4.59973,2470.1,2020-7-29T14:16:22Z
2020-07-29T12:18:37Z,42.805,6.029,13.2974,4.59972,2470.124,2020-7-29T14:19:25Z
2020-07-29T12:21:41Z,42.805,6.029,13.2968,4.59974,2470.124,2020-7-29T14:22:28Z
2020-07-29T12:24:44Z,42.805,6.029,13.2970,4.59973,2470.087,2020-7-29T14:25:32Z
2020-07-29T12:27:47Z,42.805,6.029,13.2975,4.59973,2470.124,2020-7-29T14:28:35Z
2020-07-29T12:30:50Z,42.805,6.029,13.2973,4.59973,2470.124,2020-7-29T14:31:38Z
2020-07-29T12:33:54Z,42.805,6.029,13.2973,4.59973,2470.11,2020-7-29T14:34:41Z
2020-07-29T12:36:57Z,42.805,6.029,13.2974,4.59975,2470.133,2020-7-29T14:37:45Z
2020-07-29T12:40:00Z,42.805,6.029,13.2973,4.59976,2470.147,2020-7-29T14:40:48Z
2020-07-29T12:43:03Z,42.805,6.029,13.2974,4.59973,2470.133,2020-7-29T14:43:51Z
2020-07-29T12:46:06Z,42.805,6.029,13.2971,4.59973,2470.11,2020-7-29T14:46:54Z
2020-07-29T12:49:10Z,42.805,6.029,13.2974,4.59972,2470.171,2020-7-29T14:49:57Z
2020-07-29T12:52:13Z,42.805,6.029,13.2976,4.59973,2470.171,2020-7-29T14:53:01Z
2020-07-29T12:55:16Z,42.805,6.029,13.2974,4.59972,2470.133,2020-7-29T14:56:04Z
2020-07-29T12:58:20Z,42.805,6.029,13.2971,4.59973,2470.124,2020-7-29T14:59:07Z
2020-07-29T13:01:23Z,42.805,6.029,13.2971,4.59972,2470.11,2020-7-29T15:02:11Z
2020-07-29T13:04:26Z,42.805,6.029,13.2970,4.59973,2470.11,2020-7-29T15:05:14Z
2020-07-29T13:10:32Z,42.805,6.029,13.2969,4.59973,2470.133,2020-7-29T15:11:20Z
2020-07-29T13:13:36Z,42.805,6.029,13.2973,4.59973,2470.171,2020-7-29T15:14:23Z
2020-07-29T13:16:39Z,42.805,6.029,13.2976,4.59972,2470.133,2020-7-29T15:17:27Z
2020-07-29T13:19:42Z,42.805,6.029,13.2974,4.59972,2470.133,2020-7-29T15:20:30Z
2020-07-29T13:22:45Z,42.805,6.029,13.2971,4.59974,2470.133,2020-7-29T15:23:33Z
2020-07-29T13:25:48Z,42.805,6.029,13.2972,4.59973,2470.11,2020-7-29T15:26:36Z
2020-07-29T13:28:52Z,42.805,6.029,13.2974,4.59973,2470.147,2020-7-29T15:29:40Z
2020-07-29T13:31:55Z,42.805,6.029,13.2975,4.59972,2470.156,2020-7-29T15:32:43Z
2020-07-29T13:34:58Z,42.805,6.029,13.2974,4.59971,2470.133,2020-7-29T15:35:46Z
2020-07-29T13:38:01Z,42.805,6.029,13.2970,4.59971,2470.133,2020-7-29T15:38:49Z
2020-07-29T13:41:05Z,42.805,6.029,13.2971,4.59972,2470.147,2020-7-29T15:41:52Z
2020-07-29T13:44:08Z,42.805,6.029,13.2971,4.59972,2470.133,2020-7-29T15:44:56Z
2020-07-29T13:47:11Z,42.805,6.029,13.2975,4.59973,2470.147,2020-7-29T15:47:59Z
2020-07-29T13:50:14Z,42.805,6.029,13.2971,4.59973,2470.171,2020-7-29T15:51:02Z
2020-07-29T13:53:17Z,42.805,6.029,13.2976,4.59973,2470.147,2020-7-29T15:54:05Z
2020-07-29T13:56:21Z,42.805,6.029,13.2974,4.59973,2470.133,2020-7-29T15:57:09Z
2020-07-29T13:59:24Z,42.805,6.029,13.2972,4.59972,2470.147,2020-7-29T16:00:12Z
2020-07-29T14:02:27Z,42.805,6.029,13.2974,4.59972,2470.171,2020-7-29T16:03:15Z
2020-07-29T14:05:30Z,42.805,6.029,13.2971,4.59973,2470.156,2020-7-29T16:06:18Z
2020-07-29T14:08:34Z,42.805,6.029,13.2972,4.59972,2470.156,2020-7-29T16:09:21Z
2020-07-29T14:11:37Z,42.805,6.029,13.2970,4.59972,2470.147,2020-7-29T16:12:25Z
2020-07-29T14:14:40Z,42.805,6.029,13.2975,4.59972,2470.147,2020-7-29T16:15:28Z
2020-07-29T14:17:43Z,42.805,6.029,13.2971,4.59972,2470.18,2020-7-29T16:18:31Z
2020-07-29T14:20:47Z,42.805,6.029,13.2969,4.59972,2470.133,2020-7-29T16:21:35Z
2020-07-29T14:23:50Z,42.805,6.029,13.2971,4.59975,2470.133,2020-7-29T16:24:38Z
2020-07-29T14:26:53Z,42.805,6.029,13.2974,4.59973,2470.18,2020-7-29T16:27:41Z
2020-07-29T14:29:57Z,42.805,6.029,13.2971,4.59973,2470.156,2020-7-29T16:30:44Z
2020-07-29T14:33:00Z,42.805,6.029,13.2972,4.59973,2470.133,2020-7-29T16:33:48Z
2020-07-29T14:36:03Z,42.805,6.029,13.2972,4.59973,2470.171,2020-7-29T16:36:51Z
2020-07-29T14:39:06Z,42.805,6.029,13.2973,4.59973,2470.18,2020-7-29T16:39:54Z
2020-07-29T14:42:10Z,42.805,6.029,13.2973,4.59973,2470.133,2020-7-29T16:42:57Z
2020-07-29T14:45:13Z,42.805,6.029,13.2970,4.59973,2470.133,2020-7-29T16:46:01Z
2020-07-29T14:48:16Z,42.805,6.029,13.2971,4.59973,2470.18,2020-7-29T16:49:04Z
2020-07-29T14:51:19Z,42.805,6.029,13.2973,4.59973,2470.194,2020-7-29T16:52:07Z
2020-07-29T14:54:22Z,42.805,6.029,13.2974,4.59973,2470.156,2020-7-29T16:55:10Z
2020-07-29T14:57:26Z,42.805,6.029,13.2974,4.59973,2470.156,2020-7-29T16:58:14Z
2020-07-29T15:00:29Z,42.805,6.029,13.2969,4.59973,2470.171,2020-7-29T17:01:17Z
2020-07-29T15:03:32Z,42.805,6.029,13.2972,4.59973,2470.156,2020-7-29T17:04:20Z
2020-07-29T15:06:35Z,42.805,6.029,13.2974,4.59973,2470.156,2020-7-29T17:07:23Z
2020-07-29T15:09:39Z,42.805,6.029,13.2973,4.59973,2470.133,2020-7-29T17:10:27Z
2020-07-29T15:12:42Z,42.805,6.029,13.2970,4.59974,2470.171,2020-7-29T17:13:30Z
2020-07-29T15:15:45Z,42.805,6.029,13.2971,4.59973,2470.171,2020-7-29T17:16:33Z
2020-07-29T15:18:48Z,42.805,6.029,13.2971,4.59973,2470.156,2020-7-29T17:19:36Z